This demonstration page uses our WeatherBlox Daily Observations layout. Learn more.

Left ArrowRight Arrow

Hourly Observations for April 29, 2019

Temp ( °F °C ) Dew Point ( °F °C ) Humidity (%) Winds ( mph kmh ) Pressure ( in mb ) Visibility ( mi km ) Precip ( " mm )
12:52 am 00:52 Cloudy 50 10 40 4.4 68 68 ESE 7 11 29.83 1010 10 16 0.00 0.00
1:52 am 01:52 Cloudy 49 9.4 42 5.6 77 77 NNE 10 17 29.85 1011 10 16 0.00 0.00
2:29 am 02:29 Cloudy 48 8.9 42 5.6 80 80 NNE 10 17 29.86 1011 10 16 0.00 0.00
2:52 am 02:52 Cloudy 49 9.4 42 5.6 77 77 NE 7 11 29.84 1011 10 16 0.00 0.00
3:52 am 03:52 Cloudy 49 9.4 42 5.6 77 77 NE 7 11 29.84 1011 10 16 0.00 0.00
4:10 am 04:10 Cloudy 49 9.4 42 5.6 77 77 E 5 7 29.85 1011 10 16 0.00 0.00
4:52 am 04:52 Cloudy 50 10 43 6.1 77 77 Calm 29.85 1011 10 16 0.00 0.00
5:52 am 05:52 Cloudy 49 9.4 43 6.1 80 80 N 6 9 29.90 1013 10 16 0.00 0.00
6:52 am 06:52 Cloudy 49 9.4 43 6.1 80 80 NW 9 15 29.95 1014 10 16 0.00 0.00
7:52 am 07:52 Partly Cloudy 49 9.4 42 5.6 77 77 NNW 9 15 29.98 1015 10 16 0.00 0.00
8:52 am 08:52 Mostly Cloudy 52 11.1 41 5 66 66 NNW 25 41 30.00 1016 10 16 0.00 0.00
9:52 am 09:52 Partly Cloudy 53 11.7 33 0.6 47 47 NNW 17 28 30.01 1016 10 16 0.00 0.00
10:52 am 10:52 Partly Cloudy 56 13.3 32 0 40 40 NNW 22 35 30.02 1017 10 16 0.00 0.00
11:52 am 11:52 Partly Cloudy 57 13.9 32 0 39 39 NNW 15 24 30.04 1017 10 16 0.00 0.00
12:52 pm 12:52 Mostly Cloudy 60 15.6 32 0 35 35 NW 12 19 30.06 1018 10 16 0.00 0.00
1:52 pm 13:52 Partly Cloudy 62 16.7 30 -1.1 30 30 WNW 15 24 30.05 1018 10 16 0.00 0.00
2:52 pm 14:52 Partly Cloudy 64 17.8 32 0 30 30 NW 15 24 30.06 1018 10 16 0.00 0.00
3:52 pm 15:52 Mostly Cloudy 63 17.2 32 0 31 31 NNW 10 17 30.07 1018 10 16 0.00 0.00
4:52 pm 16:52 Mostly Cloudy 63 17.2 35 1.7 35 35 NNW 15 24 30.06 1018 10 16 0.00 0.00
5:52 pm 17:52 Mostly Cloudy 59 15 33 0.6 38 38 NNW 17 28 30.08 1019 10 16 0.00 0.00
6:52 pm 18:52 Cloudy 57 13.9 35 1.7 44 44 NNW 14 22 30.11 1020 10 16 0.00 0.00
8:52 pm 20:52 Cloudy 54 12.2 36 2.2 51 51 N 16 26 30.14 1021 10 16 0.00 0.00
9:52 pm 21:52 Cloudy 53 11.7 35 1.7 51 51 N 17 28 30.14 1021 10 16 0.00 0.00
10:52 pm 22:52 Cloudy with Light Rain 52 11.1 36 2.2 55 55 N 9 15 30.16 1021 10 16 0.00 0.03
11:52 pm 23:52 Cloudy 51 10.6 36 2.2 56 56 N 12 19 30.15 1021 10 16 0.00 0.03

Powered by AerisWeather